YACHTS Weather Reports


Display with metric or nautical units.
time (UTC)temp
F
wind
direction
speed
MPH
gust
MPH
rain 1hr
in
rain 24hr
in
rain mn
in
humidity
%
barometer
mb
20260502232753 53 357 5.0 12.0 0.00 0.00 0.00 85 1012.9
20260502232239 53 29 4.0 10.0 0.00 0.00 0.00 85 1012.9
20260502231727 53 9 5.0 13.0 0.00 0.00 0.00 85 1013.0
20260502231213 53 287 6.0 13.0 0.00 0.00 0.00 85 1013.2
20260502230700 53 327 6.0 13.0 0.00 0.00 0.00 85 1013.2
20260502230147 52 26 6.0 13.0 0.00 0.00 0.00 85 1013.3
20260502225634 53 15 7.0 13.0 0.00 0.00 0.00 85 1013.3
20260502225122 53 312 6.0 13.0 0.00 0.00 0.00 85 1013.5
20260502224608 53 36 4.0 10.0 0.00 0.00 0.00 85 1013.6
20260502224055 53 355 5.0 12.0 0.00 0.00 0.00 85 1013.7
20260502223542 54 16 6.0 12.0 0.00 0.00 0.00 84 1013.7
20260502223029 54 334 5.0 12.0 0.00 0.00 0.00 85 1013.8
20260502222516 53 63 2.0 10.0 0.00 0.00 0.00 86 1013.9
20260502222005 53 309 3.0 10.0 0.00 0.00 0.00 86 1013.8
20260502221450 53 317 5.0 10.0 0.00 0.00 0.00 85 1013.9
20260502220937 54 26 4.0 10.0 0.00 0.00 0.00 85 1014.0
20260502220424 54 67 5.0 11.0 0.00 0.00 0.00 85 1014.0
20260502215911 53 352 6.0 11.0 0.00 0.00 0.00 85 1014.1
20260502215358 53 315 5.0 11.0 0.00 0.00 0.00 86 1014.0
20260502214845 53 310 6.0 10.0 0.00 0.00 0.00 85 1014.1
20260502214332 53 313 5.0 10.0 0.00 0.00 0.00 85 1014.1
20260502213819 53 334 5.0 5.0 0.00 0.00 0.00 86 1014.1
20260502213306 53 0 4.0 10.0 0.00 0.00 0.00 85 1014.2
20260502212753 53 320 3.0 10.0 0.00 0.00 0.00 85 1014.3
20260502211727 53 75 0.0 10.0 0.00 0.00 0.00 85 1014.4
20260502211214 53 1 1.0 10.0 0.00 0.00 0.00 85 1014.4
20260502210701 53 336 1.0 10.0 0.00 0.00 0.00 85 1014.4
20260502210148 53 4 3.0 10.0 0.00 0.00 0.00 85 1014.5
20260502205635 52 5 1.0 10.0 0.00 0.00 0.00 85 1014.6
20260502205122 53 22 4.0 10.0 0.00 0.00 0.00 85 1014.6
20260502204056 53 23 3.0 7.0 0.00 0.00 0.00 85 1014.7
20260502203543 53 344 3.0 11.0 0.00 0.00 0.00 84 1014.7
20260502203031 53 354 3.0 11.0 0.00 0.00 0.00 85 1014.8
20260502202517 53 323 5.0 11.0 0.00 0.00 0.00 84 1014.7
20260502202004 53 309 6.0 10.0 0.00 0.00 0.00 84 1014.8
20260502201451 53 324 3.0 6.0 0.00 0.00 0.00 85 1014.9
20260502200938 53 303 1.0 10.0 0.00 0.00 0.00 85 1014.9
20260502200425 53 291 4.0 10.0 0.00 0.00 0.00 85 1014.9
20260502195912 53 60 6.0 10.0 0.00 0.00 0.00 85 1015.1
20260502195359 53 30 5.0 10.0 0.00 0.00 0.00 85 1015.2
20260502194846 53 273 5.0 10.0 0.00 0.00 0.00 86 1015.2
20260502194333 53 0 5.0 7.0 0.00 0.00 0.00 85 1015.3
20260502193820 53 305 2.0 6.0 0.00 0.00 0.00 86 1015.4
20260502193307 53 0 2.0 11.0 0.00 0.00 0.00 86 1015.4
20260502191728 52 25 5.0 11.0 0.00 0.00 0.00 86 1015.5
20260502191215 52 337 5.0 11.0 0.00 0.00 0.00 86 1015.6
20260502190702 52 338 3.0 11.0 0.00 0.00 0.00 86 1015.6
20260502185636 52 287 0.0 11.0 0.00 0.00 0.00 86 1015.8
20260502185123 52 16 2.0 11.0 0.00 0.00 0.00 87 1015.9
20260502184610 52 16 5.0 11.0 0.00 0.00 0.00 87 1015.9
20260502184057 52 357 1.0 9.0 0.00 0.00 0.00 87 1016.0
20260502183544 52 302 0.0 9.0 0.00 0.00 0.00 88 1016.0
20260502183031 52 14 4.0 9.0 0.00 0.00 0.00 87 1016.1
20260502182518 52 302 4.0 9.0 0.00 0.00 0.00 87 1016.0
20260502182005 52 277 3.0 8.0 0.00 0.00 0.00 87 1016.1
20260502181452 52 336 5.0 8.0 0.00 0.00 0.00 87 1016.1
20260502180939 52 305 5.0 8.0 0.00 0.00 0.00 88 1016.1
20260502180426 51 70 1.0 8.0 0.00 0.00 0.00 88 1016.2
20260502170150 51 0 0.0 5.0 0.00 0.00 0.00 88 1016.5
20260502164058 51 303 1.0 8.0 0.00 0.00 0.00 88 1016.6
20260502163545 51 0 0.0 8.0 0.00 0.00 0.00 88 1016.6
20260502163032 51 47 0.0 7.0 0.00 0.00 0.00 88 1016.6
20260502162519 51 0 0.0 0.0 0.00 0.00 0.00 88 1016.7
20260502161453 51 0 0.0 0.0 0.00 0.00 0.00 88 1016.7
20260502160940 51 0 0.0 0.0 0.00 0.00 0.00 88 1016.6
20260502160427 51 0 0.0 10.0 0.00 0.00 0.00 88 1016.6
20260502152243 51 312 0.0 6.0 0.00 0.00 0.00 87 1016.8
20260502151729 51 60 0.0 5.0 0.00 0.00 0.00 87 1016.8
20260502151217 51 0 0.0 0.0 0.00 0.00 0.00 87 1016.8
20260502150704 51 0 0.0 0.0 0.00 0.00 0.00 87 1016.9
20260502150150 51 0 0.0 0.0 0.00 0.00 0.00 87 1016.9
20260502130704 50 0 0.0 0.0 0.00 0.00 0.00 87 1016.8
20260502130151 50 0 0.0 0.0 0.00 0.00 0.00 87 1016.9
20260502123546 50 47 1.0 5.0 0.00 0.00 0.00 87 1016.8
20260502123033 50 0 0.0 0.0 0.00 0.00 0.00 87 1016.9
20260502122520 50 50 0.0 10.0 0.00 0.00 0.00 87 1016.7
20260502121454 50 95 2.0 10.0 0.00 0.00 0.00 87 1016.6
20260502120941 50 53 0.0 7.0 0.00 0.00 0.00 87 1016.7
20260502120428 50 54 1.0 7.0 0.00 0.00 0.00 87 1016.9
20260502115915 50 86 3.0 7.0 0.00 0.00 0.00 87 1017.1
20260502115402 50 0 0.0 5.0 0.00 0.00 0.00 86 1017.1
20260502114849 50 0 0.0 5.0 0.00 0.00 0.00 86 1017.1
20260502114336 50 0 0.0 0.0 0.00 0.00 0.00 86 1017.1
20260502113310 50 35 0.0 8.0 0.00 0.00 0.00 86 1017.1
20260502112757 50 88 0.0 8.0 0.00 0.00 0.00 86 1017.1
20260502112244 50 49 1.0 8.0 0.00 0.00 0.00 86 1017.2
20260502111731 50 54 1.0 5.0 0.00 0.00 0.00 86 1017.2
20260502111218 50 0 0.0 5.0 0.00 0.00 0.00 86 1017.2
20260502110705 50 85 0.0 5.0 0.00 0.00 0.00 86 1017.2
20260502110152 50 0 0.0 8.0 0.00 0.00 0.00 86 1017.3
20260502105639 50 56 0.0 8.0 0.00 0.00 0.00 86 1017.2
20260502105126 50 0 0.0 8.0 0.00 0.00 0.00 86 1017.2
20260502104613 51 0 0.0 7.0 0.00 0.00 0.00 86 1017.2
20260502104101 51 39 0.0 7.0 0.00 0.00 0.00 86 1017.2
20260502103547 51 0 0.0 3.0 0.00 0.00 0.00 86 1017.3
20260502103034 50 0 0.0 5.0 0.00 0.00 0.00 86 1017.3
20260502102522 51 0 0.0 5.0 0.00 0.00 0.00 86 1017.4
20260502102009 51 68 1.0 5.0 0.00 0.00 0.00 86 1017.4
20260502101455 51 0 0.0 0.0 0.00 0.00 0.00 86 1017.3
20260502100942 51 0 0.0 9.0 0.00 0.00 0.00 86 1017.4
20260502100429 50 71 0.0 9.0 0.00 0.00 0.00 86 1017.4
20260502091220 51 91 0.0 9.0 0.00 0.00 0.00 86 1017.7
20260502090706 51 74 0.0 9.0 0.00 0.00 0.00 86 1017.8
20260502090153 51 102 0.0 8.0 0.00 0.00 0.00 86 1017.7
20260502071220 51 114 0.0 5.0 0.00 0.00 0.00 86 1018.4
20260502070707 51 26 0.0 3.0 0.00 0.00 0.00 86 1018.4
20260502070155 51 0 0.0 9.0 0.00 0.00 0.00 86 1018.3
20260502065641 51 338 0.0 9.0 0.00 0.00 0.00 86 1018.3
20260502065128 51 98 3.0 9.0 0.00 0.00 0.00 86 1018.3
20260502064615 51 61 0.0 7.0 0.00 0.00 0.00 86 1018.4
20260502064102 51 92 4.0 7.0 0.00 0.00 0.00 86 1018.4
20260502063550 51 61 1.0 6.0 0.00 0.00 0.00 86 1018.3
20260502063036 51 60 0.0 6.0 0.00 0.00 0.00 86 1018.4
20260502062523 51 0 0.0 12.0 0.00 0.00 0.00 86 1018.4
20260502062010 51 138 0.0 12.0 0.00 0.00 0.00 86 1018.5
20260502061457 51 0 0.0 12.0 0.00 0.00 0.00 86 1018.5
20260502060944 51 49 2.0 7.0 0.00 0.00 0.00 86 1018.6
20260502060431 51 0 0.0 6.0 0.00 0.00 0.00 86 1018.6
20260502055918 51 18 0.0 6.0 0.00 0.00 0.00 86 1018.7
20260502055405 51 0 0.0 0.0 0.00 0.00 0.00 86 1018.7
20260502054852 51 112 0.0 8.0 0.00 0.00 0.00 86 1018.7
20260502054339 51 0 2.0 8.0 0.00 0.00 0.00 86 1018.7
20260502053313 51 0 0.0 11.0 0.00 0.00 0.00 86 1018.7
20260502052800 51 36 2.0 11.0 0.00 0.00 0.00 86 1018.6
20260502052247 51 89 6.0 11.0 0.00 0.00 0.00 86 1018.7
20260502051734 51 95 0.0 8.0 0.00 0.00 0.00 86 1018.7
20260502051221 51 93 3.0 10.0 0.00 0.00 0.00 86 1018.7
20260502050708 51 357 0.0 10.0 0.00 0.00 0.00 86 1018.7
20260502050155 51 330 1.0 10.0 0.00 0.00 0.00 86 1018.8
20260502045642 51 0 0.0 8.0 0.00 0.00 0.00 86 1018.8
20260502045129 51 93 0.0 8.0 0.00 0.00 0.00 87 1018.7
20260502044103 51 85 1.0 9.0 0.00 0.00 0.00 87 1018.7
20260502043550 51 77 2.0 9.0 0.00 0.00 0.00 87 1018.6
20260502043037 51 47 0.0 11.0 0.00 0.00 0.00 87 1018.7
20260502042524 51 124 0.0 11.0 0.00 0.00 0.00 87 1018.6
20260502041458 51 309 3.0 8.0 0.00 0.00 0.00 87 1018.4
20260502040945 51 0 0.0 8.0 0.00 0.00 0.00 87 1018.3
20260502040432 51 0 0.0 8.0 0.00 0.00 0.00 87 1018.3
20260502035919 51 0 0.0 8.0 0.00 0.00 0.00 87 1018.3
20260502035406 51 0 0.0 8.0 0.00 0.00 0.00 87 1018.3
20260502034853 51 0 1.0 5.0 0.00 0.00 0.00 87 1018.3
20260502034340 51 0 0.0 5.0 0.00 0.00 0.00 87 1018.3
20260502033827 51 67 2.0 7.0 0.00 0.00 0.00 87 1018.3
20260502033314 51 0 0.0 7.0 0.00 0.00 0.00 87 1018.3
20260502032801 51 49 0.0 7.0 0.00 0.00 0.00 87 1018.3
20260502032248 51 93 2.0 11.0 0.00 0.00 0.00 87 1018.3
20260502031735 51 75 5.0 11.0 0.00 0.00 0.00 87 1018.2
20260502031222 51 30 0.0 11.0 0.00 0.00 0.00 87 1018.2
20260502030709 51 98 0.0 8.0 0.00 0.00 0.00 87 1018.2
20260502030156 51 89 1.0 7.0 0.00 0.00 0.00 87 1018.2
20260502025645 51 0 0.0 7.0 0.00 0.00 0.00 87 1018.1
20260502025130 51 35 3.0 7.0 0.00 0.00 0.00 87 1018.1
20260502024617 51 357 0.0 6.0 0.00 0.00 0.00 87 1018.1
20260502024105 51 312 0.0 7.0 0.00 0.00 0.00 87 1018.1
20260502023551 51 135 1.0 7.0 0.00 0.00 0.00 87 1018.0
20260502023037 51 305 1.0 7.0 0.00 0.00 0.00 87 1018.0
20260502022525 51 49 1.0 7.0 0.00 0.00 0.00 87 1018.0
20260502022014 51 0 0.0 5.0 0.00 0.00 0.00 87 1018.0
20260502021459 51 106 0.0 7.0 0.00 0.00 0.00 87 1017.9
20260502020945 51 0 0.0 7.0 0.00 0.00 0.00 87 1017.9
20260502020432 51 357 0.0 7.0 0.00 0.00 0.00 87 1017.9
20260502015919 51 0 0.0 0.0 0.00 0.00 0.00 87 1017.9
20260502015406 52 0 0.0 9.0 0.00 0.00 0.00 87 1017.9
20260502014854 51 0 1.0 9.0 0.00 0.00 0.00 87 1017.9
20260502013830 52 0 0.0 5.0 0.00 0.00 0.00 87 1018.0
20260502013314 52 0 0.0 7.0 0.00 0.00 0.00 87 1017.9
20260502012801 52 84 0.0 7.0 0.00 0.00 0.00 87 1018.0
20260502012248 52 347 2.0 7.0 0.00 0.00 0.00 87 1017.9
20260502011736 52 4 0.0 6.0 0.00 0.00 0.00 87 1017.9
20260502010709 52 37 0.0 6.0 0.00 0.00 0.00 87 1018.0
20260502010156 52 327 0.0 7.0 0.00 0.00 0.00 87 1018.0
20260502005643 52 58 2.0 7.0 0.00 0.00 0.00 87 1018.1
20260502005130 52 117 1.0 7.0 0.00 0.00 0.00 87 1018.0
20260502004617 52 0 0.0 5.0 0.00 0.00 0.00 87 1018.1
20260502004104 52 340 0.0 5.0 0.00 0.00 0.00 86 1018.0
20260502003551 52 42 2.0 10.0 0.00 0.00 0.00 86 1018.0
20260502003038 52 7 0.0 10.0 0.00 0.00 0.00 86 1017.9
20260502002525 52 99 3.0 10.0 0.00 0.00 0.00 86 1018.0
20260502002013 52 58 1.0 9.0 0.00 0.00 0.00 86 1017.9
20260502001459 52 121 0.0 9.0 0.00 0.00 0.00 86 1017.9
20260502000947 52 88 0.0 7.0 0.00 0.00 0.00 86 1017.9
20260502000434 52 0 0.0 7.0 0.00 0.00 0.00 86 1017.9
20260501235920 53 47 2.0 7.0 0.00 0.00 0.00 86 1017.9
20260501235407 53 44 0.0 7.0 0.00 0.00 0.00 86 1017.9
20260501234854 53 350 4.0 6.0 0.00 0.00 0.00 86 1018.0
20260501234341 53 338 1.0 7.0 0.00 0.00 0.00 86 1018.1
20260501233829 53 81 2.0 7.0 0.00 0.00 0.00 86 1018.1
20260501233315 52 0 3.0 7.0 0.00 0.00 0.00 86 1018.0